EW1336 Weather Reports


Display with metric or nautical units.
time (UTC)temp
F
wind
direction
speed
MPH
gust
MPH
rain 1hr
in
rain 24hr
in
rain mn
in
humidity
%
barometer
mb
20260504043051 38 198 0.0 0.0 0.00 0.21 0.21 91 1007.0
20260504041550 39 198 0.0 1.0 0.00 0.21 0.21 91 1006.8
20260504040050 39 222 0.0 0.0 0.00 0.21 0.21 91 1007.1
20260504034548 39 229 0.0 0.0 0.00 0.23 0.21 90 1006.8
20260504033053 39 231 0.0 0.0 0.00 0.23 0.21 90 1006.7
20260504031558 39 228 0.0 0.0 0.00 0.23 0.21 89 1006.3
20260504030050 40 217 0.0 0.0 0.00 0.23 0.21 85 1006.1
20260504024557 40 214 0.0 0.0 0.00 0.24 0.21 87 1006.0
20260504023047 41 277 0.0 0.0 0.00 0.24 0.21 86 1006.1
20260504021552 41 201 0.0 0.0 0.00 0.24 0.21 87 1006.3
20260504020049 42 215 0.0 0.0 0.00 0.24 0.21 89 1006.5
20260504014545 42 216 0.0 0.0 0.00 0.31 0.21 87 1006.4
20260504013049 43 215 0.0 0.0 0.00 0.31 0.21 85 1006.4
20260504011544 43 270 0.0 0.0 0.00 0.31 0.21 88 1006.2
20260504010044 44 113 0.0 0.0 0.00 0.31 0.21 89 1005.7
20260504004558 43 113 0.0 0.0 0.00 0.31 0.21 89 1005.6
20260504003042 42 113 0.0 0.0 0.00 0.31 0.21 91 1006.0
20260504001543 40 115 0.0 0.0 0.02 0.31 0.21 90 1006.5
20260504000042 39 273 0.0 0.0 0.02 0.31 0.21 90 1007.0
20260503234540 38 203 0.0 0.0 0.03 0.31 0.21 91 1007.3
20260503233040 37 274 0.0 0.0 0.05 0.31 0.21 91 1007.7
20260503231540 37 210 0.0 0.0 0.06 0.28 0.19 91 1008.0
20260503230037 38 284 0.0 1.0 0.11 0.28 0.19 92 1007.9
20260503224536 38 210 0.0 2.0 0.14 0.28 0.18 92 1008.0
20260503223035 38 257 0.0 6.0 0.13 0.26 0.16 90 1008.5
20260503221531 38 198 0.0 1.0 0.10 0.23 0.13 88 1008.4
20260503220032 40 239 0.0 2.0 0.05 0.18 0.08 85 1007.9
20260503214524 42 274 0.0 2.0 0.01 0.14 0.04 79 1007.0
20260503213027 45 264 0.0 4.0 0.00 0.13 0.03 71 1006.5
20260503211534 50 183 2.0 7.0 0.00 0.13 0.03 59 1006.6
20260503210021 57 290 1.0 6.0 0.00 0.13 0.03 36 1005.6
20260503204520 57 207 0.0 6.0 0.00 0.13 0.03 41 1004.3
20260503203021 58 273 0.0 2.0 0.00 0.13 0.03 37 1004.4
20260503201516 59 252 0.0 4.0 0.00 0.13 0.03 36 1004.6
20260503200015 59 269 0.0 1.0 0.00 0.13 0.03 40 1004.8
20260503194513 59 285 1.0 7.0 0.00 0.13 0.03 36 1004.8
20260503193028 58 246 0.0 2.0 0.00 0.13 0.03 40 1005.1
20260503191509 58 273 0.0 2.0 0.00 0.13 0.03 43 1005.6
20260503190009 57 243 0.0 3.0 0.00 0.13 0.03 42 1005.9
20260503184504 57 260 0.0 3.0 0.00 0.13 0.03 40 1006.1
20260503183003 58 30 0.0 1.0 0.00 0.13 0.03 43 1006.1
20260503181501 58 249 0.0 2.0 0.00 0.13 0.03 43 1006.3
20260503180100 57 278 0.0 3.0 0.00 0.13 0.03 41 1006.3
20260503174607 56 352 0.0 5.0 0.00 0.13 0.03 40 1006.5
20260503173050 54 355 0.0 6.0 0.00 0.13 0.03 43 1006.5
20260503171546 53 145 0.0 4.0 0.00 0.13 0.03 46 1006.6
20260503100107 44 34 0.0 1.0 0.00 0.10 0.00 71 1008.7
20260503081549 45 256 0.0 2.0 0.00 0.10 0.00 71 1009.6
20260503071543 45 280 0.0 1.0 0.00 0.10 0.00 72 1009.6
20260503054535 44 216 0.0 1.0 0.00 0.10 0.10 81 1010.0
20260503053033 43 243 0.0 0.0 0.00 0.10 0.10 84 1010.0
20260503051531 43 166 0.0 0.0 0.00 0.10 0.10 84 1009.9
20260503050030 44 210 0.0 1.0 0.00 0.10 0.10 83 1009.9
20260503044529 43 72 0.0 2.0 0.00 0.10 0.10 81 1009.9